Regional Weather Roundup
Issued by NWS Raleigh/Durham, NC

Home | Current Version | Previous Version | Text Only | Print | Product List | Glossary On
Versions: 1 2 3 4 5 6 7 8 9 10 11 12 13 14 15 16 17 18 19 20 21 22 23 24 25 26 27 28 29 30 31 32 33 34 35 36 37 38 39 40 41 42 43 44 45 46 47 48 49 50
000
ASUS42 KRAH 091110
RWRRAH
NORTH CAROLINA WEATHER ROUNDUP
NATIONAL WEATHER SERVICE RALEIGH NC
600 AM EST TUE FEB 09 2016

NOTE: "FAIR" INDICATES FEW OR NO CLOUDS BELOW 12,000 FEET WITH NO
SIGNIFICANT WEATHER AND/OR OBSTRUCTIONS TO VISIBILITY.

NCZ001-053-055-056-065-067-091200-
WESTERN NORTH CAROLINA

CITY           SKY/WX    TMP DP  RH WIND       PRES   REMARKS
ASHEVILLE      FLURRIES  25  19  78 NW7       29.66R WCI  17
JEFFERSON      FLURRIES  22  14  72 NW15G24   29.54S WCI   8
MORGANTON      CLOUDY    31  15  52 SW5       29.69R WCI  26
HICKORY        CLEAR     30  14  51 NW7       29.64R WCI  23
RUTHERFORDTON  CLOUDY    32  16  52 CALM      29.69R
MOUNT AIRY     CLOUDY    33  28  83 CALM      29.63S
BOONE          FLURRIES  20  14  78 NW12G20   29.56R WCI   8
$$

NCZ021-022-025-041-071-084-088-091200-
CENTRAL NORTH CAROLINA

CITY           SKY/WX    TMP DP  RH WIND       PRES   REMARKS
CHARLOTTE      PTCLDY    33  21  61 W6        29.68R WCI  28
GREENSBORO     CLOUDY    34  27  75 W6        29.61R WCI  29
WINSTON-SALEM  CLOUDY    34  25  69 W9        29.63R WCI  27
RALEIGH-DURHAM CLOUDY    36  33  89 W5        29.63R WCI  32
FORT BRAGG     CLOUDY    39  33  79 W12       29.64R WCI  32
FAYETTEVILLE   CLOUDY    38  35  89 W8        29.65R WCI  32
BURLINGTON     CLOUDY    35  27  72 W5        29.62R WCI  31
LAURINBURG     CLOUDY    38  34  85 W7        29.68R WCI  33
$$

NCZ011-015-027-028-043-044-047-080-103-091200-
NORTHEASTERN NORTH CAROLINA

CITY           SKY/WX    TMP DP  RH WIND       PRES   REMARKS
ROCKY MT-WILSO CLOUDY    37  34  89 W3        29.61R
GREENVILLE     MOCLDY    36  34  93 W5        29.65R FOG     WCI  32
WASHINGTON     CLEAR     35  34  96 CALM      29.61R
ELIZABETH CITY PTCLDY    38  37  97 W8        29.57R WCI  32
MANTEO         PTCLDY    40  40  98 W8        29.56R WCI  35
CAPE HATTERAS  PTCLDY    42  38  85 W7        29.59R
$$

NCZ078-087-090-091-093-098-101-091200-
SOUTHEASTERN NORTH CAROLINA

CITY           SKY/WX    TMP DP  RH WIND       PRES   REMARKS
LUMBERTON      CLOUDY    38  35  89 W10       29.68R WCI  31
GOLDSBORO      CLOUDY    37  37 100 SW3       29.61R
KENANSVILLE    MOCLDY    35  35 100 CALM      29.64R FOG
NEW BERN       CLEAR     39  37  92 W5        29.63R
CHERRY POINT   CLEAR     39  37  92 W6        29.63R WCI  35
BEAUFORT       CLEAR     41  38  89 W8        29.62R
JACKSONVILLE   CLEAR     39  37  92 W7        29.63R WCI  34
WILMINGTON     PTCLDY    40  35  83 W13       29.66R WCI  32
$$




USA.gov is the U.S. government's official web portal to all federal, state and local government web resources and services.